Millbury, Ohio, United States (43447)
Lat: 41.57N, Lon: 83.42W
Wx Zone: OHZ006
Local Info
Past Weather Observations for Today

NOTE: This archive is for the closest National Weather Service station to Millbury. Information may differ from the station used for current weather conditions.

Click here for Long-term Archive

Time Weather Temperature Dewpoint Humidity Pressure Winds Precip Visibility
22:53
Overcast
34°F / 1°C 25°F / -4°C 70% 30.09 in
(1019 mb)
N 6.9 mph
(N 11 kph)
- 9SM
21:53
Overcast
34°F / 1°C 25°F / -4°C 70% 30.09 in
(1019 mb)
N 6.9 mph
(N 11 kph)
- 9SM
20:53
Overcast
34°F / 1°C 25°F / -4°C 70% 30.09 in
(1019 mb)
N 6.9 mph
(N 11 kph)
- 10SM
19:53
Overcast
32°F / 0°C 25°F / -4°C 75% 30.09 in
(1019 mb)
N 5.8 mph
(N 9 kph)
- 10SM
18:53
Overcast
34°F / 1°C 25°F / -4°C 70% 30.09 in
(1019 mb)
NNW 6.9 mph
(NNW 11 kph)
- 10SM
17:53
Overcast
34°F / 1°C 25°F / -4°C 70% 30.09 in
(1019 mb)
N 5.8 mph
(N 9 kph)
- 10SM
17:38
Overcast
34°F / 1°C 25°F / -4°C 70% 30.09 in
(1019 mb)
N 4.6 mph
(N 7 kph)
- 10SM
16:53
Overcast
34°F / 1°C 25°F / -4°C 70% 30.09 in
(1019 mb)
NNE 6.9 mph
(NNE 11 kph)
- 10SM
16:02
Overcast
34°F / 1°C 25°F / -4°C 70% 30.09 in
(1019 mb)
N 5.8 mph
(N 9 kph)
- 10SM
15:53
Overcast
34°F / 1°C 25°F / -4°C 70% 30.09 in
(1019 mb)
NNE 4.6 mph
(NNE 7 kph)
- 10SM
14:53
Overcast
34°F / 1°C 25°F / -4°C 70% 30.09 in
(1019 mb)
NE 4.6 mph
(NE 7 kph)
- 10SM
13:53
Overcast
34°F / 1°C 23°F / -5°C 65% 30.12 in
(1020 mb)
N 4.6 mph
(N 7 kph)
- 10SM
12:53
Overcast
34°F / 1°C 21°F / -6°C 60% 30.12 in
(1020 mb)
Variable 5.8 mph
(Variable 9 kph)
- 10SM
11:53
Overcast
34°F / 1°C 21°F / -6°C 60% 30.15 in
(1021 mb)
NNE 4.6 mph
(NNE 7 kph)
- 10SM
10:53
Overcast
32°F / 0°C 21°F / -6°C 64% 30.15 in
(1021 mb)
NW 3.5 mph
(NW 6 kph)
- 10SM
09:53
Overcast
30°F / -1°C 23°F / -5°C 75% 30.18 in
(1022 mb)
NW 3.5 mph
(NW 6 kph)
- 10SM
08:53
Overcast
30°F / -1°C 21°F / -6°C 69% 30.18 in
(1022 mb)
Calm - 9SM
07:53
Overcast
28°F / -2°C 21°F / -6°C 74% 30.18 in
(1022 mb)
NNW 3.5 mph
(NNW 6 kph)
- 10SM
06:53
Overcast
28°F / -2°C 21°F / -6°C 74% 30.18 in
(1022 mb)
Calm - 10SM
05:53
Overcast
30°F / -1°C 19°F / -7°C 64% 30.18 in
(1022 mb)
Calm - 10SM
04:53
Overcast
28°F / -2°C 19°F / -7°C 69% 30.21 in
(1023 mb)
ESE 5.8 mph
(ESE 9 kph)
- 10SM
03:53
Overcast
28°F / -2°C 19°F / -7°C 69% 30.21 in
(1023 mb)
E 4.6 mph
(E 7 kph)
- 10SM
02:53
Overcast
28°F / -2°C 19°F / -7°C 69% 30.21 in
(1023 mb)
E 5.8 mph
(E 9 kph)
- 10SM
01:53
Overcast
28°F / -2°C 19°F / -7°C 69% 30.18 in
(1022 mb)
E 3.5 mph
(E 6 kph)
- 10SM
00:53
Overcast
28°F / -2°C 19°F / -7°C 69% 30.21 in
(1023 mb)
Calm - 10SM
Time Weather Temperature Dewpoint Humidity Pressure Winds Precip Visibility


Weather for websites

WeatherForYou.com, LLC is not responsible for any damages or problems caused by this service. Current weather conditions are obtained from the closest station including government and personal stations which may have varying degrees of accuracy. Weather forecasts are derived from the NOAA NDFD. Like all things, this site belongs to Jesus Christ... He just trusts me to maintain it. If you have any questions or comments email webmaster@weatherforyou.com

Copyright © 2014, WeatherForYou.com LLC. All rights reserved.